When you browse on this site, cookies collect data to enhance your experience and personalize the content and advertising you see.
Visit our Privacy Policy to learn more. By continuing to use the site, you agree to this use of cookies and data.
EN

Hourly Weather Byala

Today, 5 July, Sunday

Time Temperature Precipitation Wind Pressure Humidity
00:00 +23°C° 0 mm 2 mps 748 mmHg 83%
01:00 +22°C° 0 mm 3 mps 748 mmHg 86%
02:00 +21°C° 0 mm 4 mps 748 mmHg 93%
03:00 +21°C° 0 mm 4 mps 748 mmHg 94%
04:00 +21°C° 0 mm 4 mps 748 mmHg 95%
05:00 +21°C° 0 mm 5 mps 748 mmHg 96%
06:00 +22°C° 0 mm 5 mps 748 mmHg 90%
07:00 +23°C° 0 mm 5 mps 748 mmHg 85%
08:00 +26°C° 0 mm 4 mps 748 mmHg 75%
09:00 +27°C° 0 mm 4 mps 748 mmHg 68%
10:00 +29°C° 0 mm 4 mps 748 mmHg 61%
11:00 +32°C° 0 mm 4 mps 748 mmHg 54%
12:00 +32°C° 0.2 mm 4 mps 748 mmHg 53%
13:00 +33°C° 0.2 mm 4 mps 748 mmHg 52%
14:00 +33°C° 0.2 mm 4 mps 748 mmHg 50%
15:00 +33°C° 0.2 mm 4 mps 748 mmHg 54%
16:00 +32°C° 0.2 mm 4 mps 747 mmHg 57%
17:00 +30°C° 0.2 mm 4 mps 747 mmHg 61%
18:00 +29°C° 0.1 mm 3 mps 747 mmHg 67%
19:00 +27°C° 0.1 mm 2 mps 747 mmHg 72%
20:00 +26°C° 0.1 mm 2 mps 747 mmHg 78%
21:00 +25°C° 0 mm 2 mps 747 mmHg 80%
22:00 +25°C° 0 mm 2 mps 747 mmHg 81%
23:00 +24°C° 0 mm 3 mps 747 mmHg 83%

Tomorrow, 6 July, Monday

Time Temperature Precipitation Wind Pressure Humidity
00:00 +24°C° 0 mm 3 mps 747 mmHg 85%
01:00 +22°C° 0 mm 4 mps 747 mmHg 86%
02:00 +22°C° 0 mm 5 mps 747 mmHg 88%
03:00 +21°C° 0.1 mm 5 mps 746 mmHg 90%
04:00 +21°C° 0.1 mm 5 mps 746 mmHg 92%
05:00 +21°C° 0.1 mm 5 mps 746 mmHg 94%
06:00 +22°C° 0 mm 5 mps 746 mmHg 89%
07:00 +24°C° 0 mm 6 mps 746 mmHg 84%
08:00 +26°C° 0 mm 6 mps 746 mmHg 79%
09:00 +28°C° 0 mm 6 mps 745 mmHg 73%
10:00 +30°C° 0 mm 6 mps 745 mmHg 66%
11:00 +32°C° 0 mm 6 mps 745 mmHg 60%
12:00 +33°C° 0 mm 6 mps 745 mmHg 60%
13:00 +33°C° 0 mm 6 mps 745 mmHg 59%
14:00 +33°C° 0 mm 6 mps 744 mmHg 58%
15:00 +33°C° 0.2 mm 6 mps 744 mmHg 61%
16:00 +32°C° 0.2 mm 6 mps 743 mmHg 64%
17:00 +30°C° 0.2 mm 5 mps 743 mmHg 67%
18:00 +29°C° 0.1 mm 5 mps 743 mmHg 75%
19:00 +27°C° 0.1 mm 4 mps 743 mmHg 83%
20:00 +25°C° 0.1 mm 3 mps 743 mmHg 91%
21:00 +25°C° 0 mm 3 mps 743 mmHg 92%
22:00 +24°C° 0 mm 3 mps 743 mmHg 93%
23:00 +24°C° 0 mm 3 mps 743 mmHg 94%

Day after tomorrow, 7 July, Tuesday

Time Temperature Precipitation Wind Pressure Humidity
00:00 +24°C° 0 mm 3 mps 743 mmHg 94%
01:00 +22°C° 0 mm 3 mps 743 mmHg 94%
02:00 +22°C° 0 mm 3 mps 742 mmHg 93%
03:00 +22°C° 0 mm 3 mps 742 mmHg 93%
04:00 +21°C° 0 mm 3 mps 742 mmHg 93%
05:00 +21°C° 0 mm 3 mps 742 mmHg 93%
06:00 +24°C° 0 mm 3 mps 742 mmHg 86%
07:00 +26°C° 0 mm 3 mps 743 mmHg 79%
08:00 +27°C° 0 mm 3 mps 743 mmHg 72%
09:00 +29°C° 0 mm 3 mps 743 mmHg 65%
10:00 +30°C° 0 mm 3 mps 743 mmHg 58%
11:00 +33°C° 0 mm 3 mps 743 mmHg 51%
12:00 +34°C° 0 mm 2 mps 743 mmHg 49%
13:00 +34°C° 0 mm 2 mps 743 mmHg 47%
14:00 +35°C° 0 mm 2 mps 743 mmHg 45%
15:00 +32°C° 0.3 mm 2 mps 743 mmHg 52%
16:00 +31°C° 0.3 mm 2 mps 743 mmHg 59%
17:00 +29°C° 0.3 mm 2 mps 743 mmHg 66%
18:00 +27°C° 0.4 mm 5 mps 743 mmHg 69%
19:00 +24°C° 0.4 mm 7 mps 744 mmHg 73%
20:00 +23°C° 0.4 mm 10 mps 744 mmHg 77%
21:00 +22°C° 0.5 mm 10 mps 745 mmHg 78%
22:00 +19°C° 0.5 mm 11 mps 745 mmHg 78%
23:00 +18°C° 0.5 mm 11 mps 746 mmHg 79%

8 July, Wednesday

Time Temperature Precipitation Wind Pressure Humidity
00:00 +18°C° 0.1 mm 11 mps 746 mmHg 78%
01:00 +17°C° 0.1 mm 10 mps 746 mmHg 77%
02:00 +17°C° 0.1 mm 10 mps 747 mmHg 75%
03:00 +16°C° 0.6 mm 10 mps 747 mmHg 78%
04:00 +16°C° 0.6 mm 10 mps 747 mmHg 81%
05:00 +15°C° 0.6 mm 9 mps 747 mmHg 84%
06:00 +15°C° 0.3 mm 9 mps 748 mmHg 84%
07:00 +16°C° 0.3 mm 9 mps 748 mmHg 84%
08:00 +16°C° 0.3 mm 9 mps 748 mmHg 84%
09:00 +16°C° 0.2 mm 8 mps 749 mmHg 81%
10:00 +17°C° 0.2 mm 8 mps 749 mmHg 78%
11:00 +18°C° 0.2 mm 8 mps 750 mmHg 75%
12:00 +18°C° 0.5 mm 7 mps 750 mmHg 75%
13:00 +20°C° 0.5 mm 7 mps 750 mmHg 75%
14:00 +20°C° 0.5 mm 7 mps 750 mmHg 76%
15:00 +20°C° 0.2 mm 7 mps 750 mmHg 74%
16:00 +20°C° 0.2 mm 8 mps 750 mmHg 72%
17:00 +20°C° 0.2 mm 8 mps 750 mmHg 69%
18:00 +18°C° 0 mm 7 mps 750 mmHg 73%
19:00 +17°C° 0 mm 7 mps 750 mmHg 77%
20:00 +16°C° 0 mm 6 mps 750 mmHg 81%
21:00 +16°C° 0 mm 6 mps 751 mmHg 81%
22:00 +16°C° 0 mm 6 mps 751 mmHg 80%
23:00 +15°C° 0 mm 7 mps 751 mmHg 80%

9 July, Thursday

Time Temperature Precipitation Wind Pressure Humidity
00:00 +15°C° 0 mm 7 mps 751 mmHg 80%
01:00 +15°C° 0 mm 7 mps 751 mmHg 80%
02:00 +15°C° 0 mm 7 mps 751 mmHg 80%
03:00 +15°C° 0 mm 7 mps 751 mmHg 81%
04:00 +15°C° 0 mm 7 mps 751 mmHg 82%
05:00 +15°C° 0 mm 7 mps 751 mmHg 83%
06:00 +17°C° 0 mm 8 mps 751 mmHg 77%
07:00 +18°C° 0 mm 8 mps 751 mmHg 72%
08:00 +21°C° 0 mm 9 mps 752 mmHg 66%
09:00 +22°C° 0 mm 9 mps 752 mmHg 61%
10:00 +24°C° 0 mm 8 mps 752 mmHg 56%
11:00 +26°C° 0 mm 8 mps 752 mmHg 51%
12:00 +26°C° 0 mm 8 mps 752 mmHg 48%
13:00 +27°C° 0 mm 7 mps 752 mmHg 45%
14:00 +28°C° 0 mm 7 mps 752 mmHg 42%
15:00 +27°C° 0 mm 7 mps 752 mmHg 43%
16:00 +27°C° 0 mm 6 mps 752 mmHg 44%
17:00 +27°C° 0 mm 6 mps 752 mmHg 45%
18:00 +26°C° 0 mm 6 mps 752 mmHg 52%
19:00 +23°C° 0 mm 5 mps 752 mmHg 59%
20:00 +21°C° 0 mm 5 mps 752 mmHg 66%
21:00 +20°C° 0 mm 5 mps 753 mmHg 69%
22:00 +19°C° 0 mm 5 mps 753 mmHg 72%
23:00 +19°C° 0 mm 5 mps 753 mmHg 75%

10 July, Friday

Time Temperature Precipitation Wind Pressure Humidity
00:00 +17°C° 0 mm 5 mps 753 mmHg 76%
01:00 +17°C° 0 mm 5 mps 753 mmHg 76%
02:00 +16°C° 0 mm 5 mps 753 mmHg 76%
03:00 +16°C° 0 mm 5 mps 753 mmHg 77%
04:00 +16°C° 0 mm 5 mps 753 mmHg 78%
05:00 +15°C° 0 mm 5 mps 753 mmHg 79%
06:00 +17°C° 0 mm 5 mps 753 mmHg 72%
07:00 +21°C° 0 mm 6 mps 753 mmHg 65%
08:00 +23°C° 0 mm 6 mps 753 mmHg 59%
09:00 +24°C° 0 mm 6 mps 753 mmHg 55%
10:00 +27°C° 0 mm 6 mps 753 mmHg 50%
11:00 +28°C° 0 mm 7 mps 754 mmHg 46%
12:00 +28°C° 0 mm 7 mps 753 mmHg 46%
13:00 +28°C° 0 mm 7 mps 753 mmHg 47%
14:00 +29°C° 0 mm 7 mps 753 mmHg 47%
15:00 +28°C° 0 mm 7 mps 753 mmHg 50%
16:00 +27°C° 0 mm 7 mps 753 mmHg 53%
17:00 +27°C° 0 mm 7 mps 753 mmHg 56%
18:00 +24°C° 0 mm 6 mps 753 mmHg 61%
19:00 +23°C° 0 mm 5 mps 753 mmHg 67%
20:00 +21°C° 0 mm 5 mps 753 mmHg 73%
21:00 +20°C° 0 mm 5 mps 753 mmHg 76%
22:00 +20°C° 0 mm 4 mps 753 mmHg 78%
23:00 +19°C° 0 mm 4 mps 753 mmHg 80%
Show more